Location: Unspecified
(0.0000°N, 0.0000°E)
Time: 03:36:51
(UTC+00:00)

Transit 2A - All Passes

Search period start: 01 September 2016 00:00
Search period end: 11 September 2016 00:00
Orbit: 592 x 968 km, 66.7° (Epoch: 31 August)

Date Brightness Start Highest point End Pass type
(mag) Time Alt. Az. Time Alt. Az. Time Alt. Az.
01 Sep - 04:52:53 10° SSE 04:56:35 18° ESE 05:00:29 10° ENE visible
01 Sep - 06:34:28 10° SW 06:39:28 34° WNW 06:44:53 10° N daylight
01 Sep - 17:27:27 10° N 17:32:26 49° ENE 17:36:57 10° SE daylight
02 Sep - 04:21:44 10° ESE 04:22:41 10° ESE 04:23:41 10° E visible
02 Sep - 06:00:04 10° SSW 06:05:29 55° WNW 06:11:25 10° N daylight
02 Sep - 16:54:04 10° N 16:58:27 28° ENE 17:02:29 10° SE daylight
02 Sep - 18:38:40 10° WNW 18:41:15 14° WSW 18:43:45 10° SW visible
03 Sep - 05:26:01 10° SSW 05:31:32 89° WNW 05:37:37 10° NNE visible
03 Sep - 16:21:16 10° NNE 16:24:27 17° ENE 16:27:27 10° ESE daylight
03 Sep - 18:03:21 10° NW 18:07:24 25° WSW 18:11:11 10° SSW daylight
04 Sep - 04:52:14 10° S 04:57:38 56° ESE 05:03:32 10° NNE visible
04 Sep - 06:39:13 10° W 06:40:52 11° WNW 06:42:33 10° NW daylight
04 Sep - 17:28:45 10° NW 17:33:32 44° WSW 17:37:55 10° S daylight
05 Sep - 04:18:48 10° S 04:23:45 34° ESE 04:29:07 10° NE visible
05 Sep - 06:02:53 10° WSW 06:06:49 19° WNW 06:10:58 10° NNW daylight
05 Sep - 16:54:34 10° NNW 16:59:39 80° WSW 17:04:14 10° SSE daylight
06 Sep - 03:45:46 10° SSE 03:49:53 21° ESE 03:54:14 10° ENE visible
06 Sep - 05:27:54 10° SW 05:32:49 30° WNW 05:38:05 10° N visible
06 Sep - 16:20:44 10° N 16:25:43 57° ENE 16:30:15 10° SSE daylight
07 Sep - 03:13:43 10° SE 03:16:00 12° ESE 03:18:20 10° E visible
07 Sep - 04:53:25 10° SW 04:58:49 49° WNW 05:04:42 10° N visible
07 Sep - 15:47:15 10° N 15:51:45 32° ENE 15:55:53 10° SE daylight
07 Sep - 17:32:42 10° W 17:34:31 12° WSW 17:36:17 10° SW daylight
08 Sep - 04:19:17 10° SSW 04:24:52 80° WNW 04:31:00 10° NNE visible
08 Sep - 15:14:16 10° NNE 15:17:44 19° ENE 15:21:01 10° ESE daylight
08 Sep - 16:56:57 10° WNW 17:00:39 21° WSW 17:04:08 10° SSW daylight
09 Sep - 03:45:26 10° S 03:50:57 64° ESE 03:56:59 10° NNE visible
09 Sep - 14:42:53 10° ENE 14:43:42 10° ENE 14:44:31 10° ENE daylight
09 Sep - 16:22:13 10° NW 16:26:47 37° WSW 16:31:00 10° S daylight
10 Sep - 03:11:53 10° S 03:17:04 39° ESE 03:22:40 10° NE visible
10 Sep - 04:56:32 10° WSW 05:00:10 17° WNW 05:03:58 10° NNW visible
10 Sep - 15:47:56 10° NNW 15:52:54 69° WSW 15:57:26 10° SSE daylight
